Theta_e
309 308 308 309 310 310 309 309 311 310 310 309 309 309 308 307 308 307 308 308 308 308 307 307 304 300 298 298 301 309 310 310 309 304 306 311 312 312 312 312 312 312 311 312
308 308 307 308 308 308 309 309 310 310 310 309 309 309 309 308 308 307 307 307 307 307 307 307 306 300 299 298 298 299 304 305 304 302 302 307 310 311 311 311 311 311 310 310
309 306 306 307 307 307 307 308 309 310 310 310 310 309 308 308 307 307 307 307 306 307 307 307 306 301 299 298 298 298 298 299 300 300 300 302 305 307 307 308 308 308 308 308
309 306 308 306 304 304 307 307 307 308 309 308 308 307 307 306 306 307 306 306 306 306 306 307 306 301 300 299 298 298 298 298 298 298 299 299 300 302 303 303 303 303 304 306
307 307 307 305 306 304 304 307 307 307 308 307 307 306 307 306 306 306 306 305 304 304 305 306 304 302 301 300 299 299 298 298 298 298 298 298 298 299 300 300 301 301 301 300
306 306 307 305 304 304 303 307 303 305 307 307 305 308 308 304 305 305 304 304 305 304 303 304 304 303 302 301 300 300 299 299 298 298 298 297 297 297 298 298 298 298 299 299
306 307 307 306 304 304 307 306 301 303 305 305 306 307 305 305 305 305 305 304 303 303 305 304 303 303 302 302 301 301 300 300 299 299 298 297 297 297 297 297 297 297 297 297
305 306 307 303 302 307 305 302 304 304 305 304 304 305 305 305 305 305 305 305 303 303 303 304 304 304 303 303 302 302 301 300 300 300 299 299 298 297 297 296 296 296 296 296
306 307 306 302 305 304 304 304 304 303 303 303 303 304 304 305 304 302 303 304 303 302 301 301 301 303 304 304 304 303 302 301 301 300 300 300 299 299 298 297 297 296 296 296
303 305 304 304 303 303 302 302 302 301 301 300 301 301 302 302 301 302 302 302 302 301 301 301 301 300 300 301 303 305 304 303 302 301 301 300 300 300 300 299 298 297 296 296
303 303 302 302 302 302 301 301 301 301 301 301 301 301 301 301 301 302 301 301 301 301 300 300 300 300 299 300 300 302 304 304 303 303 302 301 301 301 301 301 300 300 299 297
303 304 303 303 301 300 300 301 300 300 300 300 300 301 301 300 301 301 301 301 300 300 299 299 299 299 299 298 299 301 303 304 304 304 303 302 302 302 301 301 301 301 301 300
302 303 302 300 300 301 301 301 300 300 300 299 300 300 300 301 301 300 300 300 300 300 299 299 298 299 298 299 300 300 300 302 303 304 304 303 303 303 302 302 302 302 301 301
301 301 301 301 301 300 299 299 299 299 299 300 300 299 299 300 300 300 300 299 300 300 301 302 302 302 303 303 304 303 302 302 301 302 303 304 304 303 303 303 303 303 303 302
300 301 300 301 300 299 298 297 297 297 298 299 299 299 298 299 299 299 299 300 300 300 300 300 300 300 300 300 301 301 302 302 303 303 304 304 303 303 303 303 303 303 302 303
299 299 298 298 298 297 296 295 295 297 297 298 298 298 298 298 299 299 300 300 299 298 298 298 298 298 298 298 298 298 298 299 299 300 300 300 300 300 300 300 300 301 301 301
297 298 298 298 297 297 296 295 295 296 297 298 298 297 298 298 298 300 299 298 298 298 298 298 298 298 298 298 298 298 298 298 298 298 298 298 298 299 299 299 299 299 300 300
298 298 297 297 296 296 297 297 296 296 297 297 297 297 298 299 299 298 298 298 298 298 299 299 299 299 298 298 298 298 297 297 297 297 297 297 297 297 297 297 298 298 299 298
301 301 300 299 298 298 298 299 298 297 298 298 298 299 299 298 298 298 298 298 299 299 299 300 300 300 299 298 298 298 297 297 297 297 297 297 296 296 296 296 297 297 297 296
300 300 299 300 300 299 299 299 299 299 298 298 298 298 298 298 298 299 300 302 302 302 302 302 302 302 302 301 300 299 298 297 297 296 296 296 296 296 295 295 296 296 296 295
297 299 299 298 297 300 301 299 300 301 301 300 300 301 301 301 301 301 302 302 302 302 302 302 302 302 302 301 301 300 298 296 296 295 295 295 295 295 294 294 293 293 293 294
294 294 294 296 296 296 299 300 300 300 301 301 301 301 302 302 302 302 302 301 301 302 302 301 302 302 301 300 300 299 297 295 294 294 294 293 292 293 293 293 293 293 294 294
293 294 294 294 295 296 296 297 299 300 300 300 301 302 302 302 302 301 301 301 300 300 302 302 301 301 300 299 299 298 296 295 294 293 292 292 292 293 293 293 293 293 294 294
294 294 294 294 295 295 296 297 298 299 299 300 300 300 300 300 300 300 300 299 299 300 302 301 301 300 299 299 299 296 295 294 293 293 292 292 293 293 293 293 293 294 294 294
293 293 294 294 295 295 296 296 297 298 298 299 299 299 300 299 299 300 300 300 300 301 301 301 301 300 299 299 298 295 294 294 293 292 292 291 292 293 293 293 293 294 294 294
293 293 294 295 295 295 296 296 296 297 297 298 298 298 298 299 299 299 300 300 300 299 299 299 298 297 298 297 295 294 294 293 292 291 291 291 291 292 293 293 293 293 293 293
293 294 294 295 296 296 296 296 296 297 297 297 298 298 299 299 299 299 299 299 299 298 297 297 297 297 296 294 294 293 293 292 291 291 290 290 291 291 292 292 292 292 291 291
Wind_Speed
10 11 12 15 15 15 20 22 11 10 15 22 15 15 20 22 24 20 19 17 16 18 17 16 14 13 11 9 9 7 6 7 8 9 10 10 9 8 9 10 10 9 9 8
6 9 10 17 20 23 24 25 28 26 31 26 38 28 23 20 14 14 20 23 26 21 19 17 15 14 12 10 10 9 8 8 7 7 8 8 7 6 7 8 7 7 7 8
5 4 14 16 17 22 19 19 24 22 28 18 22 19 19 19 18 21 24 24 24 20 18 17 16 15 14 12 11 10 10 10 8 8 7 7 7 7 7 7 7 7 8 8
6 10 4 3 7 8 13 20 20 24 26 26 24 25 24 24 24 23 17 14 12 13 15 15 16 16 15 14 13 12 12 11 10 10 9 9 8 8 7 7 6 6 7 7
3 4 13 2 3 3 6 7 18 24 24 28 21 19 23 6 2 6 10 10 10 10 12 14 16 16 16 16 15 15 13 13 12 12 11 11 11 10 10 9 8 8 7 7
1 4 4 2 0 3 3 1 2 13 16 11 4 4 4 4 8 12 14 14 14 14 14 15 16 18 19 18 19 18 16 15 14 13 14 13 13 13 13 12 12 12 11 11
9 6 9 9 7 2 4 4 10 6 9 7 6 9 9 10 14 17 17 18 18 19 19 17 18 20 22 21 22 18 19 18 17 16 16 15 15 15 15 14 14 14 14 13
7 6 9 9 6 6 1 1 8 12 12 13 19 20 20 20 22 24 25 23 23 22 20 19 20 23 25 25 20 21 21 21 20 19 18 17 17 17 17 16 16 16 16 15
9 6 6 8 15 10 13 15 24 19 19 21 24 29 31 32 34 33 30 28 23 19 20 22 23 25 28 26 24 24 24 24 23 22 21 20 19 19 19 18 17 17 17 16
3 10 24 27 26 29 28 28 24 24 22 21 25 28 27 25 31 27 21 20 19 23 29 29 25 24 28 26 26 27 27 26 24 25 24 22 22 21 20 19 18 18 17 17
13 23 32 29 20 17 17 18 27 29 30 37 37 36 30 31 30 23 21 23 26 29 31 31 28 30 27 25 27 30 29 27 26 27 25 24 25 24 24 22 19 19 18 18
10 18 17 20 20 22 29 35 38 35 36 30 29 28 27 29 23 24 27 27 30 30 29 29 29 30 29 24 25 26 29 28 27 26 26 25 26 27 25 23 22 22 21 21
33 36 26 25 33 43 39 32 35 38 36 33 31 27 23 23 25 27 27 29 26 23 20 18 17 16 17 19 23 24 26 25 25 26 27 27 26 27 27 25 24 25 23 24
28 33 41 36 32 27 32 46 43 42 39 41 39 32 28 31 32 28 26 23 19 17 14 13 12 11 13 15 16 17 19 20 22 23 25 26 27 27 28 28 28 28 26 25
28 28 29 40 44 45 36 34 33 34 32 31 27 33 31 32 28 23 21 17 14 12 11 11 11 10 12 13 14 15 17 17 19 21 22 24 26 27 28 28 29 29 27 26
29 31 30 30 37 37 32 30 27 31 29 29 27 25 20 22 22 19 15 14 13 12 12 13 14 13 13 14 14 14 15 16 17 19 20 21 23 25 26 26 27 27 28 25
19 24 30 32 31 34 32 29 27 27 25 24 24 19 14 15 16 14 13 13 12 13 13 13 10 11 11 12 14 15 15 16 18 20 21 22 22 24 25 26 26 26 26 23
15 18 22 22 26 27 27 26 24 21 19 17 12 10 9 10 11 11 11 13 13 11 9 8 8 10 13 15 17 18 19 21 22 23 24 25 26 26 26 26 27 26 25 24
21 24 25 26 24 24 25 24 21 17 11 8 7 6 8 10 10 10 10 10 10 10 8 10 12 13 15 17 19 21 23 24 25 26 26 27 28 28 28 27 27 26 25 23
22 24 26 27 25 24 25 24 22 17 13 11 10 9 9 8 8 7 7 7 8 9 11 13 15 16 18 19 21 24 25 26 25 25 26 27 27 28 27 26 26 25 23 21
28 29 29 31 31 26 25 24 21 18 14 11 10 8 8 7 7 8 9 12 11 15 17 17 18 21 21 22 24 27 27 26 26 26 26 25 24 23 23 22 22 20 17 17
34 32 33 31 31 32 28 24 22 21 19 18 17 15 14 12 12 15 17 21 23 21 22 23 23 24 25 27 28 29 27 26 26 25 25 24 22 20 20 18 16 16 15 16
35 32 36 32 30 32 32 31 27 23 24 25 24 24 23 23 22 25 31 33 32 29 30 31 30 30 29 30 29 30 28 26 26 25 25 23 20 18 18 16 14 14 16 15
37 38 37 34 33 32 31 31 30 30 29 29 28 28 30 34 39 41 41 40 35 33 33 32 31 32 31 31 31 30 27 25 26 24 24 22 20 17 17 16 14 14 15 14
38 39 39 38 38 37 33 33 33 31 31 32 33 33 33 33 36 36 33 33 33 33 32 30 32 31 33 33 30 28 26 25 24 24 23 21 19 17 17 16 14 14 14 13
41 41 39 36 36 37 36 33 33 33 32 33 34 33 31 29 30 30 31 30 29 27 31 33 32 30 30 28 25 24 25 23 22 22 21 22 19 17 15 14 13 13 12 11
38 38 39 39 37 35 35 33 32 33 31 31 32 30 28 26 26 27 28 29 27 29 30 31 29 26 21 19 20 22 20 20 21 21 21 20 17 14 13 12 12 11 9 7
Wind_Direction
270 268 254 258 251 220 215 224 230 257 239 265 271 276 276 285 290 290 288 287 308 302 294 292 287 289 291 289 289 294 310 324 333 345 350 351 344 335 330 322 316 305 303 303
279 273 268 265 254 243 240 237 248 260 272 274 277 280 274 272 279 284 294 296 296 295 284 281 281 279 278 279 279 277 283 291 311 337 351 358 4 3 357 353 349 339 321 303
269 296 301 277 258 236 236 235 235 245 250 269 273 275 284 288 285 289 290 293 293 288 274 272 271 269 270 274 276 276 276 282 294 307 317 325 329 334 337 342 348 0 8 10
288 319 250 53 265 238 238 243 235 247 257 260 271 289 291 285 282 287 297 302 296 276 264 262 260 260 263 266 270 274 276 279 287 294 300 304 307 308 310 318 331 341 348 353
269 278 292 280 37 137 198 284 229 237 254 265 280 294 294 284 298 313 317 320 316 291 268 260 256 258 262 265 268 269 274 278 284 290 294 295 296 295 296 301 306 310 314 321
210 275 259 14 131 193 191 297 13 226 250 264 221 276 333 327 327 323 315 310 303 297 284 268 264 263 264 268 269 272 276 279 282 285 287 289 290 290 292 296 298 302 305 310
241 268 278 260 204 115 288 21 343 310 277 216 206 236 289 293 306 313 314 308 301 290 282 278 269 268 270 271 271 278 274 277 278 280 282 284 286 289 292 294 296 299 300 303
201 240 264 168 114 203 58 334 343 319 289 265 267 280 284 285 288 294 296 297 299 285 281 279 274 270 271 272 283 278 274 275 276 277 279 281 284 285 287 290 293 295 296 297
213 226 256 202 237 234 270 288 295 294 287 294 286 282 286 286 295 295 287 286 290 276 283 286 279 273 273 277 279 276 272 272 274 274 274 276 279 282 285 288 290 290 291 293
284 252 253 261 264 269 277 277 292 298 295 304 295 300 287 287 297 294 292 286 275 278 284 284 279 269 268 269 268 265 264 267 268 270 271 273 274 276 278 281 284 287 289 290
252 268 273 281 269 282 289 292 298 299 291 296 297 295 290 293 297 288 288 288 288 287 285 281 273 272 273 271 263 262 262 262 263 265 268 269 271 272 273 275 277 279 281 281
256 277 265 285 299 298 299 298 296 293 298 295 288 289 287 283 282 288 291 295 295 293 289 286 279 272 272 266 264 264 264 264 264 266 267 267 267 270 269 272 274 274 276 278
250 273 284 288 290 293 298 302 301 298 295 292 287 286 285 275 283 287 288 296 295 293 292 291 287 281 272 267 268 268 266 266 265 264 266 267 269 271 276 277 273 272 273 273
262 277 289 290 295 299 294 299 296 290 288 288 284 279 279 281 279 278 286 289 287 289 291 291 291 289 279 278 277 275 273 270 265 264 265 267 269 271 273 274 273 275 272 270
283 290 278 295 296 305 311 308 302 292 290 292 294 289 283 270 268 270 278 276 280 286 291 295 297 296 292 290 289 289 286 284 280 276 273 273 273 273 273 274 275 276 274 272
299 296 304 307 312 315 315 312 302 304 298 296 292 294 273 268 264 269 261 265 271 279 286 292 294 291 291 292 292 291 289 288 286 285 284 281 279 278 277 276 275 276 275 274
318 323 332 330 330 329 328 322 311 307 302 296 297 291 267 256 256 253 260 268 277 286 291 295 299 300 302 302 302 300 297 295 292 289 287 284 281 281 281 280 280 279 278 276
6 351 343 333 331 333 341 341 332 320 311 308 295 274 255 243 254 263 268 274 284 288 294 306 310 310 311 309 307 305 303 301 297 293 290 288 286 283 281 280 280 279 281 281
11 7 3 355 345 339 336 340 346 349 342 331 314 296 275 271 271 270 273 286 299 308 317 321 320 318 317 312 309 307 306 304 301 298 294 290 286 285 283 282 281 280 280 278
350 352 355 356 353 341 335 335 331 329 324 316 305 298 293 289 283 285 297 320 329 322 323 323 322 325 323 319 315 311 307 305 303 301 299 296 292 289 285 282 280 278 276 275
346 338 338 338 336 335 336 327 325 324 319 315 311 310 308 307 306 309 315 316 335 313 312 309 313 316 308 305 306 306 303 301 301 304 305 305 300 295 290 288 286 281 279 274
330 326 326 325 326 323 321 320 316 308 300 297 295 290 288 288 290 294 299 305 318 315 301 296 296 297 295 296 298 300 298 295 297 301 305 306 304 300 296 291 285 281 276 274
320 314 315 312 314 314 314 309 302 297 293 286 282 281 278 275 276 283 292 299 303 301 298 293 292 292 292 292 294 295 292 293 294 296 300 302 298 296 293 286 280 274 272 270
314 314 314 310 306 304 304 306 300 292 285 281 280 280 280 281 281 282 285 288 288 288 289 288 290 293 292 288 290 287 287 288 291 294 294 295 289 287 284 280 275 272 272 271
311 313 312 311 308 304 308 308 303 294 290 286 284 281 282 284 283 286 285 285 286 285 282 287 292 292 290 289 284 280 279 282 286 289 291 293 287 280 278 277 274 272 270 270
311 310 309 303 300 302 305 307 300 297 295 293 292 292 292 290 286 287 288 288 285 282 287 292 293 291 289 285 281 279 281 283 286 286 290 291 286 276 274 274 276 273 268 269
303 306 309 312 312 312 310 308 303 300 300 298 294 293 294 291 288 287 288 289 286 289 291 293 293 291 288 282 282 283 282 285 288 290 288 286 279 272 271 271 275 269 257 251